WZZ5463 EGGW-EDLW

Flight info

Callsign WZZ5463
Flight time 1h 1m
Altitude 33000
Route MATCH Q295 BRAIN M197 REDFA L620 TACHA DCT PAM L620 SONEB Z841 DOMEG DOME2A
Aircraft A20N/M-V/N

Departure

Time 2026-04-29 18:14
Airport London Luton Airport (EGGW)

Arrival

Time 2026-04-29 19:16
Airport Dortmund Airport (EDLW)
Time Latitude Longitude Altitude Speed Heading
2026-04-29 18:00 51.88088 -0.37361 508 ft 0 kts 341°
2026-04-29 18:06 51.88077 -0.37355 508 ft 2 kts 342°
2026-04-29 18:06 51.88061 -0.37346 508 ft 2 kts 342°
2026-04-29 18:07 51.88045 -0.37338 508 ft 2 kts 344°
2026-04-29 18:07 51.88029 -0.37332 508 ft 2 kts 352°
2026-04-29 18:07 51.88015 -0.37338 508 ft 2 kts 81°
2026-04-29 18:07 51.88010 -0.37364 508 ft 2 kts 71°
2026-04-29 18:08 51.88006 -0.37385 508 ft 1 kts 72°
2026-04-29 18:08 51.88005 -0.37387 508 ft 0 kts 72°
2026-04-29 18:09 51.88006 -0.37384 508 ft 1 kts 72°
2026-04-29 18:10 51.88010 -0.37367 508 ft 4 kts 71°
2026-04-29 18:10 51.88024 -0.37301 508 ft 9 kts 71°
2026-04-29 18:10 51.88043 -0.37190 508 ft 12 kts 88°
2026-04-29 18:10 51.87987 -0.37114 508 ft 12 kts 162°
2026-04-29 18:11 51.87899 -0.37067 508 ft 14 kts 161°
2026-04-29 18:11 51.87805 -0.37016 514 ft 14 kts 161°
2026-04-29 18:11 51.87711 -0.36966 521 ft 14 kts 162°
2026-04-29 18:11 51.87626 -0.36994 522 ft 16 kts 251°
2026-04-29 18:12 51.87592 -0.37186 522 ft 20 kts 253°
2026-04-29 18:12 51.87586 -0.37393 521 ft 18 kts 261°
2026-04-29 18:12 51.87505 -0.37541 522 ft 19 kts 250°
2026-04-29 18:12 51.87465 -0.37758 522 ft 22 kts 254°
2026-04-29 18:13 51.87417 -0.38002 524 ft 21 kts 237°
2026-04-29 18:13 51.87320 -0.38101 522 ft 0 kts 204°
2026-04-29 18:13 51.87302 -0.38112 522 ft 7 kts 200°
2026-04-29 18:13 51.87254 -0.38070 523 ft 12 kts 99°
2026-04-29 18:14 51.87299 -0.37792 523 ft 52 kts 75°
2026-04-29 18:14 51.87457 -0.36878 523 ft 113 kts 74°
2026-04-29 18:14 51.87697 -0.35486 752 ft 139 kts 74°
2026-04-29 18:14 51.87977 -0.33881 1223 ft 157 kts 74°
2026-04-29 18:15 51.88293 -0.32133 1779 ft 172 kts 74°
2026-04-29 18:15 51.88654 -0.30183 2337 ft 189 kts 75°
2026-04-29 18:15 51.89041 -0.28061 2941 ft 205 kts 77°
2026-04-29 18:15 51.89430 -0.25711 3394 ft 227 kts 78°
2026-04-29 18:16 51.89708 -0.23160 4230 ft 231 kts 93°
2026-04-29 18:16 51.89263 -0.20661 4732 ft 239 kts 119°
2026-04-29 18:16 51.88064 -0.18769 4940 ft 248 kts 146°
2026-04-29 18:16 51.86430 -0.17760 4991 ft 257 kts 158°
2026-04-29 18:17 51.84699 -0.16997 4993 ft 256 kts 158°
2026-04-29 18:17 51.82992 -0.16172 4998 ft 256 kts 156°
2026-04-29 18:17 51.81328 -0.15193 5110 ft 254 kts 153°
2026-04-29 18:17 51.79699 -0.14101 5107 ft 253 kts 151°
2026-04-29 18:18 51.78090 -0.12958 5118 ft 251 kts 150°
2026-04-29 18:18 51.76595 -0.11584 5114 ft 243 kts 133°
2026-04-29 18:18 51.75613 -0.09418 5114 ft 240 kts 111°
2026-04-29 18:18 51.75300 -0.06798 5107 ft 239 kts 88°
2026-04-29 18:19 51.75510 -0.04136 5100 ft 240 kts 83°
2026-04-29 18:19 51.75744 -0.01476 5084 ft 240 kts 83°
2026-04-29 18:19 51.75973 0.01186 5082 ft 240 kts 84°
2026-04-29 18:19 51.76197 0.03846 5014 ft 239 kts 84°
2026-04-29 18:20 51.76419 0.06520 5015 ft 242 kts 84°
2026-04-29 18:20 51.76640 0.09215 5212 ft 243 kts 84°
2026-04-29 18:20 51.76861 0.11936 5856 ft 246 kts 84°
2026-04-29 18:20 51.77086 0.14662 6971 ft 245 kts 84°
2026-04-29 18:21 51.77314 0.17432 7873 ft 253 kts 84°
2026-04-29 18:21 51.77547 0.20277 8797 ft 258 kts 84°
2026-04-29 18:21 51.77785 0.23180 9734 ft 264 kts 84°
2026-04-29 18:21 51.78025 0.26156 10594 ft 272 kts 85°
2026-04-29 18:22 51.78277 0.29300 11019 ft 294 kts 85°
2026-04-29 18:22 51.78548 0.32708 11370 ft 316 kts 85°
2026-04-29 18:22 51.78834 0.36279 12094 ft 323 kts 84°
2026-04-29 18:22 51.79126 0.39906 12938 ft 328 kts 84°
2026-04-29 18:23 51.79422 0.43583 13775 ft 332 kts 84°
2026-04-29 18:23 51.79719 0.47310 14531 ft 338 kts 84°
2026-04-29 18:23 51.80018 0.51094 14719 ft 339 kts 84°
2026-04-29 18:23 51.80315 0.54870 14860 ft 338 kts 84°
2026-04-29 18:24 51.80609 0.58649 14974 ft 341 kts 84°
2026-04-29 18:24 51.80906 0.62475 15533 ft 344 kts 84°
2026-04-29 18:24 51.81275 0.66284 16411 ft 345 kts 79°
2026-04-29 18:24 51.81857 0.70066 17136 ft 349 kts 77°
2026-04-29 18:25 51.82454 0.73891 17866 ft 353 kts 77°
2026-04-29 18:25 51.83053 0.77754 18615 ft 356 kts 77°
2026-04-29 18:25 51.83655 0.81658 19201 ft 360 kts 77°
2026-04-29 18:25 51.84302 0.85539 19812 ft 364 kts 75°
2026-04-29 18:26 51.85042 0.89538 20451 ft 368 kts 75°
2026-04-29 18:26 51.85792 0.93514 21051 ft 372 kts 75°
2026-04-29 18:26 51.86544 0.97542 21646 ft 376 kts 75°
2026-04-29 18:26 51.87292 1.01606 22245 ft 379 kts 75°
2026-04-29 18:27 51.88041 1.05719 22817 ft 383 kts 76°
2026-04-29 18:27 51.88794 1.09884 23412 ft 387 kts 76°
2026-04-29 18:27 51.89549 1.14079 23959 ft 390 kts 76°
2026-04-29 18:27 51.90311 1.18320 24437 ft 394 kts 76°
2026-04-29 18:28 51.91076 1.22582 24963 ft 396 kts 76°
2026-04-29 18:28 51.91845 1.26877 25442 ft 398 kts 76°
2026-04-29 18:28 51.92618 1.31203 25939 ft 401 kts 76°
2026-04-29 18:28 51.93394 1.35563 26380 ft 404 kts 76°
2026-04-29 18:29 51.94173 1.39947 26842 ft 406 kts 76°
2026-04-29 18:29 51.94691 1.42866 27144 ft 408 kts 76°
2026-04-29 18:29 51.95742 1.48810 27715 ft 412 kts 76°
2026-04-29 18:29 51.96532 1.53288 28152 ft 414 kts 76°
2026-04-29 18:30 51.97313 1.57726 28538 ft 417 kts 76°
2026-04-29 18:30 51.98108 1.62255 28942 ft 419 kts 76°
2026-04-29 18:30 51.98906 1.66814 29327 ft 421 kts 76°
2026-04-29 18:30 51.99692 1.71406 29707 ft 423 kts 77°
2026-04-29 18:31 52.00419 1.76037 30082 ft 425 kts 78°
2026-04-29 18:31 52.01130 1.80712 30415 ft 428 kts 78°
2026-04-29 18:31 52.01844 1.85406 30763 ft 429 kts 78°
2026-04-29 18:31 52.02563 1.90116 31112 ft 431 kts 78°
2026-04-29 18:32 52.03289 1.94842 31446 ft 432 kts 77°
2026-04-29 18:32 52.04738 2.04280 32334 ft 429 kts 77°
2026-04-29 18:32 52.05457 2.08977 32782 ft 427 kts 77°
2026-04-29 18:33 52.06172 2.13663 33106 ft 426 kts 77°
2026-04-29 18:33 52.06880 2.18317 33232 ft 424 kts 77°
2026-04-29 18:33 52.08288 2.27615 33302 ft 423 kts 77°
2026-04-29 18:34 52.09012 2.35436 33308 ft 421 kts 90°
2026-04-29 18:34 52.09063 2.46564 33302 ft 421 kts 90°
2026-04-29 18:35 52.09093 2.56091 33308 ft 421 kts 90°
2026-04-29 18:35 52.09112 2.65598 33307 ft 420 kts 90°
2026-04-29 18:36 52.09119 2.75078 33305 ft 419 kts 90°
2026-04-29 18:36 52.09117 2.84539 33310 ft 418 kts 90°
2026-04-29 18:37 52.09107 2.93992 33294 ft 418 kts 90°
2026-04-29 18:37 52.09089 3.03439 33301 ft 418 kts 90°
2026-04-29 18:38 52.09064 3.12879 33293 ft 417 kts 90°
2026-04-29 18:38 52.09032 3.22317 33310 ft 417 kts 90°
2026-04-29 18:39 52.08992 3.31759 33307 ft 418 kts 90°
2026-04-29 18:39 52.08944 3.41203 33303 ft 418 kts 90°
2026-04-29 18:40 52.08889 3.50653 33306 ft 418 kts 90°
2026-04-29 18:40 52.08826 3.60062 33300 ft 419 kts 90°
2026-04-29 18:41 52.08678 3.78998 33313 ft 419 kts 90°
2026-04-29 18:42 52.08592 3.88474 33320 ft 419 kts 90°
2026-04-29 18:42 52.08499 3.97957 33324 ft 419 kts 90°
2026-04-29 18:43 52.08398 4.07429 33327 ft 419 kts 90°
2026-04-29 18:43 52.08289 4.16906 33326 ft 419 kts 90°
2026-04-29 18:44 52.08173 4.26359 33329 ft 418 kts 90°
2026-04-29 18:44 52.08051 4.35684 33331 ft 418 kts 90°
2026-04-29 18:45 52.07921 4.45115 33331 ft 417 kts 90°
2026-04-29 18:45 52.07783 4.54532 33323 ft 416 kts 90°
2026-04-29 18:46 52.07638 4.63929 33317 ft 416 kts 90°
2026-04-29 18:46 52.07485 4.73313 33315 ft 415 kts 90°
2026-04-29 18:47 52.07326 4.82692 33321 ft 415 kts 90°
2026-04-29 18:47 52.07159 4.92059 33323 ft 414 kts 90°
2026-04-29 18:48 52.06985 5.01417 33322 ft 414 kts 90°
2026-04-29 18:48 52.06804 5.10764 33321 ft 414 kts 90°
2026-04-29 18:49 52.06615 5.20111 33318 ft 414 kts 90°
2026-04-29 18:49 52.06419 5.29461 33325 ft 414 kts 90°
2026-04-29 18:50 52.06215 5.38803 33331 ft 414 kts 90°
2026-04-29 18:50 52.06005 5.48137 33157 ft 414 kts 90°
2026-04-29 18:51 52.05896 5.52821 32901 ft 414 kts 90°
2026-04-29 18:51 52.05786 5.57498 32638 ft 415 kts 90°
2026-04-29 18:51 52.05674 5.62183 32386 ft 416 kts 90°
2026-04-29 18:51 52.05560 5.66875 32129 ft 416 kts 90°
2026-04-29 18:52 52.05443 5.71583 31875 ft 417 kts 90°
2026-04-29 18:52 52.05325 5.76297 31622 ft 418 kts 90°
2026-04-29 18:52 52.05204 5.81012 31333 ft 416 kts 90°
2026-04-29 18:52 52.05083 5.85644 30787 ft 415 kts 90°
2026-04-29 18:53 52.04958 5.90387 30117 ft 413 kts 90°
2026-04-29 18:53 52.04834 5.95031 29435 ft 410 kts 90°
2026-04-29 18:53 52.04710 5.99577 28778 ft 406 kts 90°
2026-04-29 18:53 52.04584 6.04135 28140 ft 403 kts 90°
2026-04-29 18:54 52.04458 6.08662 27495 ft 400 kts 90°
2026-04-29 18:54 52.04331 6.13155 26875 ft 396 kts 90°
2026-04-29 18:54 52.04203 6.17611 26253 ft 394 kts 90°
2026-04-29 18:54 52.04074 6.22032 25656 ft 391 kts 90°
2026-04-29 18:55 52.03945 6.26426 25053 ft 388 kts 90°
2026-04-29 18:55 52.03815 6.30787 24472 ft 386 kts 90°
2026-04-29 18:55 52.03685 6.35123 23896 ft 383 kts 90°
2026-04-29 18:55 52.03554 6.39426 23252 ft 380 kts 90°
2026-04-29 18:56 52.03422 6.43686 22677 ft 376 kts 90°
2026-04-29 18:56 52.03333 6.46544 22277 ft 374 kts 90°
2026-04-29 18:56 52.03202 6.50681 21701 ft 370 kts 90°
2026-04-29 18:56 52.03070 6.54835 21126 ft 367 kts 90°
2026-04-29 18:57 52.02938 6.58952 20561 ft 364 kts 90°
2026-04-29 18:57 52.02806 6.63043 20013 ft 361 kts 90°
2026-04-29 18:57 52.02675 6.67088 19462 ft 358 kts 90°
2026-04-29 18:57 52.02542 6.71102 18932 ft 355 kts 91°
2026-04-29 18:58 52.02162 6.75063 18358 ft 356 kts 101°
2026-04-29 18:58 52.01348 6.78858 17761 ft 357 kts 110°
2026-04-29 18:58 52.00127 6.82375 17199 ft 358 kts 117°
2026-04-29 18:58 51.98821 6.85787 16646 ft 355 kts 117°
2026-04-29 18:59 51.97537 6.89181 16089 ft 352 kts 117°
2026-04-29 18:59 51.96261 6.92566 15540 ft 350 kts 117°
2026-04-29 18:59 51.94995 6.95920 15008 ft 348 kts 117°
2026-04-29 18:59 51.93736 6.99247 14444 ft 345 kts 117°
2026-04-29 19:00 51.92492 7.02525 13822 ft 340 kts 117°
2026-04-29 19:00 51.91250 7.05798 13155 ft 341 kts 117°
2026-04-29 19:00 51.90019 7.09036 12511 ft 334 kts 118°
2026-04-29 19:00 51.88810 7.12214 11871 ft 330 kts 118°
2026-04-29 19:01 51.87610 7.15365 11263 ft 327 kts 118°
2026-04-29 19:01 51.86426 7.18469 10738 ft 321 kts 118°
2026-04-29 19:01 51.85249 7.21554 10508 ft 324 kts 118°
2026-04-29 19:01 51.84074 7.24627 10389 ft 315 kts 118°
2026-04-29 19:02 51.82949 7.27557 10350 ft 297 kts 118°
2026-04-29 19:02 51.81895 7.30297 10352 ft 279 kts 118°
2026-04-29 19:02 51.80889 7.32917 10350 ft 276 kts 118°
2026-04-29 19:02 51.79874 7.35574 10355 ft 277 kts 118°
2026-04-29 19:03 51.78864 7.38208 10355 ft 275 kts 118°
2026-04-29 19:03 51.77854 7.40839 10354 ft 276 kts 118°
2026-04-29 19:03 51.76839 7.43479 10352 ft 277 kts 118°
2026-04-29 19:03 51.75824 7.46116 10356 ft 277 kts 118°
2026-04-29 19:04 51.74641 7.48569 10351 ft 282 kts 136°
2026-04-29 19:04 51.72924 7.50139 10164 ft 287 kts 153°
2026-04-29 19:04 51.71079 7.51356 9819 ft 286 kts 153°
2026-04-29 19:04 51.69240 7.52562 9455 ft 285 kts 153°
2026-04-29 19:05 51.67412 7.53763 9126 ft 281 kts 153°
2026-04-29 19:05 51.65639 7.54922 8977 ft 270 kts 153°
2026-04-29 19:05 51.63905 7.56040 8635 ft 268 kts 156°
2026-04-29 19:05 51.62042 7.56415 8247 ft 276 kts 183°
2026-04-29 19:06 51.60218 7.55381 7818 ft 285 kts 211°
2026-04-29 19:06 51.58730 7.53256 7410 ft 288 kts 223°
2026-04-29 19:06 51.55902 7.48659 6568 ft 290 kts 223°
2026-04-29 19:07 51.54504 7.46367 6114 ft 284 kts 223°
2026-04-29 19:07 51.53685 7.44736 5798 ft 283 kts 238°
2026-04-29 19:07 51.52542 7.40975 5198 ft 278 kts 243°
2026-04-29 19:07 51.51740 7.38170 4731 ft 274 kts 243°
2026-04-29 19:08 51.50958 7.35414 4335 ft 270 kts 243°
2026-04-29 19:08 51.50129 7.32744 3909 ft 263 kts 230°
2026-04-29 19:08 51.48810 7.30867 3503 ft 247 kts 200°
2026-04-29 19:08 51.47216 7.30319 3128 ft 228 kts 168°
2026-04-29 19:09 51.45750 7.30965 2796 ft 214 kts 154°
2026-04-29 19:09 51.44388 7.31776 2559 ft 203 kts 153°
2026-04-29 19:09 51.43109 7.32525 2495 ft 189 kts 153°
2026-04-29 19:09 51.41959 7.33322 2510 ft 184 kts 151°
2026-04-29 19:10 51.40861 7.34313 2485 ft 175 kts 125°
2026-04-29 19:10 51.40422 7.36056 2484 ft 170 kts 87°
2026-04-29 19:10 51.40794 7.37825 2523 ft 168 kts 64°
2026-04-29 19:10 51.41540 7.39165 2486 ft 157 kts 44°
2026-04-29 19:11 51.42363 7.40133 2487 ft 138 kts 43°
2026-04-29 19:11 51.43113 7.40985 2484 ft 128 kts 43°
2026-04-29 19:11 51.43871 7.41839 2492 ft 134 kts 43°
2026-04-29 19:11 51.44621 7.42680 2491 ft 129 kts 43°
2026-04-29 19:12 51.45305 7.43597 2503 ft 127 kts 56°
2026-04-29 19:12 51.45810 7.44722 2500 ft 123 kts 61°
2026-04-29 19:12 51.46289 7.45900 2506 ft 127 kts 62°
2026-04-29 19:12 51.46602 7.46700 2405 ft 127 kts 63°
2026-04-29 19:13 51.47198 7.48264 2206 ft 125 kts 64°
2026-04-29 19:13 51.47646 7.49470 2055 ft 122 kts 64°
2026-04-29 19:13 51.48053 7.50585 1885 ft 111 kts 64°
2026-04-29 19:13 51.48458 7.51705 1735 ft 120 kts 64°
2026-04-29 19:14 51.48880 7.52863 1570 ft 119 kts 64°
2026-04-29 19:14 51.49282 7.53983 1405 ft 116 kts 64°
2026-04-29 19:14 51.49689 7.55136 1221 ft 120 kts 63°
2026-04-29 19:14 51.50098 7.56303 1028 ft 118 kts 62°
2026-04-29 19:15 51.50516 7.57460 855 ft 118 kts 62°
2026-04-29 19:15 51.50915 7.58597 701 ft 118 kts 63°
2026-04-29 19:15 51.51318 7.59747 560 ft 117 kts 62°
2026-04-29 19:15 51.51711 7.60869 424 ft 111 kts 62°
2026-04-29 19:16 51.52020 7.61755 409 ft 57 kts 60°
2026-04-29 19:16 51.52153 7.62132 411 ft 29 kts 60°
2026-04-29 19:16 51.52169 7.62328 411 ft 15 kts 135°
2026-04-29 19:16 51.52097 7.62395 408 ft 0 kts 153°
2026-04-29 19:17 51.52084 7.62399 410 ft 4 kts 173°
2026-04-29 19:17 51.52047 7.62371 408 ft 8 kts 229°
2026-04-29 19:17 51.52016 7.62287 411 ft 10 kts 240°
2026-04-29 19:18 51.51982 7.62192 412 ft 8 kts 240°
2026-04-29 19:18 51.51963 7.62139 411 ft 7 kts 240°
2026-04-29 19:18 51.51920 7.62018 412 ft 11 kts 240°
2026-04-29 19:18 51.51876 7.61893 413 ft 14 kts 240°
2026-04-29 19:19 51.51823 7.61742 411 ft 16 kts 240°
2026-04-29 19:19 51.51774 7.61604 416 ft 7 kts 240°
2026-04-29 19:19 51.51759 7.61561 414 ft 2 kts 240°
2026-04-29 19:19 51.51746 7.61526 413 ft 5 kts 240°
2026-04-29 19:20 51.51719 7.61482 419 ft 6 kts 192°
2026-04-29 19:20 51.51685 7.61503 414 ft 0 kts 149°
2026-04-29 19:20 51.51684 7.61505 413 ft 0 kts 149°
2026-04-29 19:21 51.51683 7.61505 413 ft 1 kts 149°
2026-04-29 19:21 51.51667 7.61519 409 ft 3 kts 152°
2026-04-29 19:21 51.51658 7.61527 413 ft 0 kts 152°